Time,TemperatureF,DewpointF,PressureIn,WindDirection,WindDirectionDegrees,WindSpeedMPH,WindSpeedGustMPH,Humidity,HourlyPrecipIn,Conditions,Clouds,dailyrainin,SoftwareType,DateUTC
2013-10-14 00:01:00,41.4,39.8,30.21,ENE,69,0.0,0.0,94,0.00,,,0.00,WeatherCatV1.11B39,2013-10-14 04:01:00,
2013-10-14 00:06:00,41.4,39.8,30.21,ENE,69,0.0,0.0,94,0.00,,,0.00,WeatherCatV1.11B39,2013-10-14 04:06:00,
2013-10-14 00:11:00,41.2,39.6,30.21,ENE,69,0.0,0.0,94,0.00,,,0.00,WeatherCatV1.11B39,2013-10-14 04:11:00,
2013-10-14 00:16:00,41.1,39.5,30.21,ENE,69,0.0,0.0,94,0.00,,,0.00,WeatherCatV1.11B39,2013-10-14 04:16:00,
2013-10-14 00:21:00,41.1,39.5,30.20,ENE,69,0.0,0.0,94,0.00,,,0.00,WeatherCatV1.11B39,2013-10-14 04:21:00,
2013-10-14 00:26:00,41.1,39.5,30.21,ENE,69,0.0,0.0,94,0.00,,,0.00,WeatherCatV1.11B39,2013-10-14 04:26:00,
2013-10-14 00:31:00,41.1,39.5,30.21,ENE,69,0.0,0.0,94,0.00,,,0.00,WeatherCatV1.11B39,2013-10-14 04:31:00,
2013-10-14 00:36:00,41.1,39.5,30.21,ENE,69,0.0,0.0,94,0.00,,,0.00,WeatherCatV1.11B39,2013-10-14 04:36:00,
2013-10-14 00:41:00,41.1,39.5,30.21,ENE,69,0.0,0.0,94,0.00,,,0.00,WeatherCatV1.11B39,2013-10-14 04:41:00,
2013-10-14 00:46:00,40.9,39.6,30.20,ENE,69,0.0,0.0,95,0.00,,,0.00,WeatherCatV1.11B39,2013-10-14 04:46:00,
2013-10-14 00:51:00,40.7,39.1,30.21,ENE,69,0.0,0.0,94,0.00,,,0.00,WeatherCatV1.11B39,2013-10-14 04:51:00,
2013-10-14 00:56:00,40.7,39.1,30.21,ENE,69,0.0,0.0,94,0.00,,,0.00,WeatherCatV1.11B39,2013-10-14 04:56:00,
2013-10-14 01:01:00,40.4,38.8,30.21,ENE,69,0.0,0.0,94,0.00,,,0.00,WeatherCatV1.11B39,2013-10-14 05:01:00,
2013-10-14 01:06:00,40.5,39.2,30.21,ENE,69,0.0,0.0,95,0.00,,,0.00,WeatherCatV1.11B39,2013-10-14 05:06:00,
2013-10-14 01:11:00,40.7,39.4,30.21,ENE,69,0.0,0.0,95,0.00,,,0.00,WeatherCatV1.11B39,2013-10-14 05:11:00,
2013-10-14 01:16:00,40.9,39.6,30.20,ENE,69,0.0,0.0,95,0.00,,,0.00,WeatherCatV1.11B39,2013-10-14 05:16:00,
2013-10-14 01:21:00,40.9,39.6,30.20,ENE,69,0.0,0.0,95,0.00,,,0.00,WeatherCatV1.11B39,2013-10-14 05:21:00,
2013-10-14 01:26:00,40.9,39.6,30.20,ENE,69,0.0,0.0,95,0.00,,,0.00,WeatherCatV1.11B39,2013-10-14 05:26:00,
2013-10-14 01:31:00,40.8,39.5,30.20,ENE,69,0.0,0.0,95,0.00,,,0.00,WeatherCatV1.11B39,2013-10-14 05:31:00,
2013-10-14 01:36:00,40.7,39.1,30.20,ENE,69,0.0,0.0,94,0.00,,,0.00,WeatherCatV1.11B39,2013-10-14 05:36:00,
2013-10-14 01:41:00,40.4,38.8,30.20,ENE,69,0.0,0.0,94,0.00,,,0.00,WeatherCatV1.11B39,2013-10-14 05:41:00,
2013-10-14 01:46:00,40.1,38.8,30.20,ENE,69,0.0,0.0,95,0.00,,,0.00,WeatherCatV1.11B39,2013-10-14 05:46:00,
2013-10-14 01:51:00,40.1,38.5,30.20,ENE,69,0.0,0.0,94,0.00,,,0.00,WeatherCatV1.11B39,2013-10-14 05:51:00,
2013-10-14 01:56:00,40.0,38.4,30.20,ENE,69,0.0,0.0,94,0.00,,,0.00,WeatherCatV1.11B39,2013-10-14 05:56:00,
2013-10-14 02:01:00,39.8,38.5,30.19,ENE,69,0.0,0.0,95,0.00,,,0.00,WeatherCatV1.11B39,2013-10-14 06:01:00,
2013-10-14 02:06:00,39.7,38.1,30.19,ENE,69,0.0,0.0,94,0.00,,,0.00,WeatherCatV1.11B39,2013-10-14 06:06:00,
2013-10-14 02:11:00,39.7,38.4,30.19,ENE,69,0.0,0.0,95,0.00,,,0.00,WeatherCatV1.11B39,2013-10-14 06:11:00,
2013-10-14 02:16:00,39.5,38.2,30.18,ENE,69,0.0,0.0,95,0.00,,,0.00,WeatherCatV1.11B39,2013-10-14 06:16:00,
2013-10-14 02:21:00,39.4,38.1,30.18,ENE,69,0.0,0.0,95,0.00,,,0.00,WeatherCatV1.11B39,2013-10-14 06:21:00,
2013-10-14 02:26:00,39.4,37.8,30.18,ENE,69,0.0,0.0,94,0.00,,,0.00,WeatherCatV1.11B39,2013-10-14 06:26:00,
2013-10-14 02:31:00,39.2,37.9,30.18,ENE,69,0.0,0.0,95,0.00,,,0.00,WeatherCatV1.11B39,2013-10-14 06:31:00,
2013-10-14 02:36:00,39.2,37.6,30.18,ENE,70,0.0,0.0,94,0.00,,,0.00,WeatherCatV1.11B39,2013-10-14 06:36:00,
2013-10-14 02:41:00,39.3,38.0,30.18,ENE,69,0.0,0.0,95,0.00,,,0.00,WeatherCatV1.11B39,2013-10-14 06:41:00,
2013-10-14 02:46:00,39.5,38.2,30.19,ENE,69,0.0,0.0,95,0.00,,,0.00,WeatherCatV1.11B39,2013-10-14 06:46:00,
2013-10-14 02:51:00,39.8,38.5,30.18,ENE,69,0.0,0.0,95,0.00,,,0.00,WeatherCatV1.11B39,2013-10-14 06:51:00,
2013-10-14 02:56:00,40.1,38.8,30.18,ENE,69,0.0,0.0,95,0.00,,,0.00,WeatherCatV1.11B39,2013-10-14 06:56:00,
2013-10-14 03:01:00,40.5,39.2,30.18,ENE,59,0.0,0.0,95,0.00,,,0.00,WeatherCatV1.11B39,2013-10-14 07:01:00,
2013-10-14 03:06:00,41.0,39.7,30.19,ENE,74,0.0,0.0,95,0.00,,,0.00,WeatherCatV1.11B39,2013-10-14 07:06:00,
2013-10-14 03:11:00,41.1,39.8,30.18,ENE,72,0.0,0.0,95,0.00,,,0.00,WeatherCatV1.11B39,2013-10-14 07:11:00,
2013-10-14 03:16:00,40.9,40.1,30.18,ENE,72,0.0,0.0,97,0.00,,,0.00,WeatherCatV1.11B39,2013-10-14 07:16:00,
2013-10-14 03:21:00,40.8,40.0,30.18,ENE,72,0.0,0.0,97,0.00,,,0.00,WeatherCatV1.11B39,2013-10-14 07:21:00,
2013-10-14 03:26:00,40.5,39.7,30.18,ENE,72,0.0,0.0,97,0.00,,,0.00,WeatherCatV1.11B39,2013-10-14 07:26:00,
2013-10-14 03:31:00,40.3,39.3,30.18,ENE,72,0.0,0.0,96,0.00,,,0.00,WeatherCatV1.11B39,2013-10-14 07:31:00,
2013-10-14 03:36:00,40.1,39.1,30.18,ENE,72,0.0,0.0,96,0.00,,,0.00,WeatherCatV1.11B39,2013-10-14 07:36:00,
2013-10-14 03:41:00,39.9,39.1,30.18,ENE,72,0.0,0.0,97,0.00,,,0.00,WeatherCatV1.11B39,2013-10-14 07:41:00,
2013-10-14 03:46:00,40.2,39.4,30.18,ENE,71,0.0,0.0,97,0.00,,,0.00,WeatherCatV1.11B39,2013-10-14 07:46:00,
2013-10-14 03:51:00,40.2,39.4,30.18,ENE,71,0.0,0.0,97,0.00,,,0.00,WeatherCatV1.11B39,2013-10-14 07:51:00,
2013-10-14 03:56:00,40.4,39.6,30.18,ENE,70,0.0,0.0,97,0.00,,,0.00,WeatherCatV1.11B39,2013-10-14 07:56:00,
2013-10-14 04:01:00,40.5,39.7,30.17,ENE,71,0.0,0.0,97,0.00,,,0.00,WeatherCatV1.11B39,2013-10-14 08:01:00,
2013-10-14 04:06:00,40.4,39.6,30.17,ENE,70,0.0,0.0,97,0.00,,,0.00,WeatherCatV1.11B39,2013-10-14 08:06:00,
2013-10-14 04:11:00,40.4,39.6,30.17,ENE,70,0.0,0.0,97,0.00,,,0.00,WeatherCatV1.11B39,2013-10-14 08:11:00,
2013-10-14 04:16:00,40.4,39.6,30.17,ENE,70,0.0,0.0,97,0.00,,,0.00,WeatherCatV1.11B39,2013-10-14 08:16:00,
2013-10-14 04:21:00,40.4,39.6,30.18,ENE,70,0.0,0.0,97,0.00,,,0.00,WeatherCatV1.11B39,2013-10-14 08:21:00,
2013-10-14 04:26:00,40.2,39.4,30.17,ENE,70,0.0,0.0,97,0.00,,,0.00,WeatherCatV1.11B39,2013-10-14 08:26:00,
2013-10-14 04:31:00,40.0,39.2,30.17,ENE,70,0.0,0.0,97,0.00,,,0.00,WeatherCatV1.11B39,2013-10-14 08:31:00,
2013-10-14 04:36:00,39.8,39.0,30.17,ENE,70,0.0,0.0,97,0.00,,,0.00,WeatherCatV1.11B39,2013-10-14 08:36:00,
2013-10-14 04:41:00,39.7,38.9,30.17,ENE,70,0.0,0.0,97,0.00,,,0.00,WeatherCatV1.11B39,2013-10-14 08:41:00,
2013-10-14 04:46:00,39.5,38.7,30.18,ENE,70,0.0,0.0,97,0.00,,,0.00,WeatherCatV1.11B39,2013-10-14 08:46:00,
2013-10-14 04:51:00,39.5,38.7,30.17,ENE,70,0.0,0.0,97,0.00,,,0.00,WeatherCatV1.11B39,2013-10-14 08:51:00,
2013-10-14 04:56:00,39.5,38.7,30.17,ENE,71,0.0,0.0,97,0.00,,,0.00,WeatherCatV1.11B39,2013-10-14 08:56:00,
2013-10-14 05:01:00,39.4,38.6,30.17,ENE,70,0.0,0.0,97,0.00,,,0.00,WeatherCatV1.11B39,2013-10-14 09:01:00,
2013-10-14 05:06:00,39.3,38.5,30.17,ENE,71,0.0,0.0,97,0.00,,,0.00,WeatherCatV1.11B39,2013-10-14 09:06:00,
2013-10-14 05:11:00,39.2,38.4,30.17,ENE,71,0.0,0.0,97,0.00,,,0.00,WeatherCatV1.11B39,2013-10-14 09:11:00,
2013-10-14 05:16:00,39.1,38.3,30.17,ENE,70,0.0,0.0,97,0.00,,,0.00,WeatherCatV1.11B39,2013-10-14 09:16:00,
2013-10-14 05:21:00,38.6,37.8,30.17,ENE,71,0.0,0.0,97,0.00,,,0.00,WeatherCatV1.11B39,2013-10-14 09:21:00,
2013-10-14 05:26:00,38.1,37.1,30.17,ENE,70,0.0,0.0,96,0.00,,,0.00,WeatherCatV1.11B39,2013-10-14 09:26:00,
2013-10-14 05:31:00,37.8,36.8,30.17,ENE,70,0.0,0.0,96,0.00,,,0.00,WeatherCatV1.11B39,2013-10-14 09:31:00,
2013-10-14 05:36:00,37.5,36.5,30.17,ENE,71,0.0,0.0,96,0.00,,,0.00,WeatherCatV1.11B39,2013-10-14 09:36:00,
2013-10-14 05:41:00,37.4,36.4,30.17,ENE,70,0.0,0.0,96,0.00,,,0.00,WeatherCatV1.11B39,2013-10-14 09:41:00,
2013-10-14 05:46:00,37.2,36.4,30.17,ENE,70,0.0,0.0,97,0.00,,,0.00,WeatherCatV1.11B39,2013-10-14 09:46:00,
2013-10-14 05:51:00,37.2,36.4,30.17,ENE,70,0.0,0.0,97,0.00,,,0.00,WeatherCatV1.11B39,2013-10-14 09:51:00,
2013-10-14 05:56:00,36.9,35.9,30.17,ENE,71,0.0,0.0,96,0.00,,,0.00,WeatherCatV1.11B39,2013-10-14 09:56:00,
2013-10-14 06:01:00,36.8,36.0,30.17,ENE,70,0.0,0.0,97,0.00,,,0.00,WeatherCatV1.11B39,2013-10-14 10:01:00,
2013-10-14 06:06:00,36.9,36.1,30.17,ENE,70,0.0,0.0,97,0.00,,,0.00,WeatherCatV1.11B39,2013-10-14 10:06:00,
2013-10-14 06:11:00,37.1,36.3,30.17,ENE,70,0.0,0.0,97,0.00,,,0.00,WeatherCatV1.11B39,2013-10-14 10:11:00,
2013-10-14 06:16:00,37.2,36.4,30.17,ENE,70,0.0,0.0,97,0.00,,,0.00,WeatherCatV1.11B39,2013-10-14 10:16:00,
2013-10-14 06:21:00,37.4,36.6,30.17,ENE,70,0.0,0.0,97,0.00,,,0.00,WeatherCatV1.11B39,2013-10-14 10:21:00,
2013-10-14 06:26:00,37.5,36.7,30.17,ENE,70,0.0,0.0,97,0.00,,,0.00,WeatherCatV1.11B39,2013-10-14 10:26:00,
2013-10-14 06:31:00,37.4,36.6,30.17,ENE,70,0.0,0.0,97,0.00,,,0.00,WeatherCatV1.11B39,2013-10-14 10:31:00,
2013-10-14 06:36:00,37.1,36.3,30.17,ENE,70,0.0,0.0,97,0.00,,,0.00,WeatherCatV1.11B39,2013-10-14 10:36:00,
2013-10-14 06:41:00,37.2,36.2,30.17,ENE,71,0.0,0.0,96,0.00,,,0.00,WeatherCatV1.11B39,2013-10-14 10:41:00,
2013-10-14 06:46:00,37.7,36.9,30.17,ENE,71,0.0,0.0,97,0.00,,,0.00,WeatherCatV1.11B39,2013-10-14 10:46:00,
2013-10-14 06:51:00,38.0,37.2,30.17,ENE,70,0.0,0.0,97,0.00,,,0.00,WeatherCatV1.11B39,2013-10-14 10:51:00,
2013-10-14 06:56:00,38.1,37.3,30.17,ENE,70,0.0,0.0,97,0.00,,,0.00,WeatherCatV1.11B39,2013-10-14 10:56:00,
2013-10-14 07:01:00,38.5,37.7,30.17,ENE,70,0.0,0.0,97,0.00,,,0.00,WeatherCatV1.11B39,2013-10-14 11:01:00,
2013-10-14 07:06:00,38.5,37.7,30.17,NNE,22,0.0,1.0,97,0.00,,,0.00,WeatherCatV1.11B39,2013-10-14 11:06:00,
2013-10-14 07:11:00,38.8,38.0,30.17,NW,322,0.0,0.0,97,0.00,,,0.00,WeatherCatV1.11B39,2013-10-14 11:11:00,
2013-10-14 07:16:00,38.8,38.0,30.18,NW,322,0.0,0.0,97,0.00,,,0.00,WeatherCatV1.11B39,2013-10-14 11:16:00,
2013-10-14 07:21:00,38.8,38.0,30.17,NW,322,0.0,0.0,97,0.00,,,0.00,WeatherCatV1.11B39,2013-10-14 11:21:00,
2013-10-14 07:26:00,38.8,38.0,30.18,NW,322,0.0,0.0,97,0.00,,,0.00,WeatherCatV1.11B39,2013-10-14 11:26:00,
2013-10-14 07:31:00,38.8,37.8,30.17,NW,322,0.0,0.0,96,0.00,,,0.00,WeatherCatV1.11B39,2013-10-14 11:31:00,
2013-10-14 07:36:00,38.9,38.1,30.18,NW,322,0.0,0.0,97,0.00,,,0.00,WeatherCatV1.11B39,2013-10-14 11:36:00,
2013-10-14 07:41:00,39.0,38.0,30.18,NW,322,0.0,0.0,96,0.00,,,0.00,WeatherCatV1.11B39,2013-10-14 11:41:00,
2013-10-14 07:46:00,38.9,38.1,30.18,NW,322,0.0,0.0,97,0.00,,,0.00,WeatherCatV1.11B39,2013-10-14 11:46:00,
2013-10-14 07:51:00,39.1,38.3,30.18,NW,322,0.0,0.0,97,0.00,,,0.00,WeatherCatV1.11B39,2013-10-14 11:51:00,
2013-10-14 07:56:00,39.1,38.3,30.18,NW,322,0.0,0.0,97,0.00,,,0.00,WeatherCatV1.11B39,2013-10-14 11:56:00,
2013-10-14 08:01:00,39.3,38.5,30.18,NW,322,0.0,0.0,97,0.00,,,0.00,WeatherCatV1.11B39,2013-10-14 12:01:00,
2013-10-14 08:06:00,39.4,38.6,30.18,NW,322,0.0,0.0,97,0.00,,,0.00,WeatherCatV1.11B39,2013-10-14 12:06:00,
2013-10-14 08:11:00,39.7,38.9,30.18,NW,322,0.0,0.0,97,0.00,,,0.00,WeatherCatV1.11B39,2013-10-14 12:11:00,
2013-10-14 08:16:00,39.8,39.0,30.18,NW,322,0.0,0.0,97,0.00,,,0.00,WeatherCatV1.11B39,2013-10-14 12:16:00,
2013-10-14 08:21:00,40.1,39.3,30.18,NW,320,0.0,0.0,97,0.00,,,0.00,WeatherCatV1.11B39,2013-10-14 12:21:00,
2013-10-14 08:26:00,40.6,39.8,30.18,NW,320,0.0,0.0,97,0.00,,,0.00,WeatherCatV1.11B39,2013-10-14 12:26:00,
2013-10-14 08:31:00,41.2,40.4,30.18,NW,320,0.0,0.0,97,0.00,,,0.00,WeatherCatV1.11B39,2013-10-14 12:31:00,
2013-10-14 08:36:00,41.6,40.8,30.18,NW,320,0.0,0.0,97,0.00,,,0.00,WeatherCatV1.11B39,2013-10-14 12:36:00,
2013-10-14 08:41:00,42.1,41.3,30.18,NW,320,0.0,0.0,97,0.00,,,0.00,WeatherCatV1.11B39,2013-10-14 12:41:00,
2013-10-14 08:46:00,42.4,41.9,30.18,NW,320,0.0,0.0,98,0.00,,,0.00,WeatherCatV1.11B39,2013-10-14 12:46:00,
2013-10-14 08:51:00,42.6,41.8,30.18,NW,320,0.0,0.0,97,0.00,,,0.00,WeatherCatV1.11B39,2013-10-14 12:51:00,
2013-10-14 08:56:00,43.1,42.3,30.18,NW,320,0.0,0.0,97,0.00,,,0.00,WeatherCatV1.11B39,2013-10-14 12:56:00,
2013-10-14 09:01:00,43.5,42.7,30.18,NW,320,0.0,0.0,97,0.00,,,0.00,WeatherCatV1.11B39,2013-10-14 13:01:00,
2013-10-14 09:06:00,43.9,43.4,30.18,NW,320,0.0,0.0,98,0.00,,,0.00,WeatherCatV1.11B39,2013-10-14 13:06:00,
2013-10-14 09:11:00,44.5,43.7,30.17,NW,320,0.0,0.0,97,0.00,,,0.00,WeatherCatV1.11B39,2013-10-14 13:11:00,
2013-10-14 09:16:00,45.2,44.7,30.18,NW,320,0.0,0.0,98,0.00,,,0.00,WeatherCatV1.11B39,2013-10-14 13:16:00,
2013-10-14 09:21:00,45.4,44.9,30.18,NW,320,0.0,0.0,98,0.00,,,0.00,WeatherCatV1.11B39,2013-10-14 13:21:00,
2013-10-14 09:26:00,45.7,45.2,30.17,NW,320,0.0,0.0,98,0.00,,,0.00,WeatherCatV1.11B39,2013-10-14 13:26:00,
2013-10-14 09:31:00,46.2,45.7,30.17,NW,320,0.0,0.0,98,0.00,,,0.00,WeatherCatV1.11B39,2013-10-14 13:31:00,
2013-10-14 09:36:00,46.9,46.4,30.17,NW,320,0.0,0.0,98,0.00,,,0.00,WeatherCatV1.11B39,2013-10-14 13:36:00,
2013-10-14 09:41:00,47.5,47.0,30.17,West,269,0.0,0.0,98,0.00,,,0.00,WeatherCatV1.11B39,2013-10-14 13:41:00,
2013-10-14 09:46:00,48.1,47.8,30.17,West,269,0.0,0.0,99,0.00,,,0.00,WeatherCatV1.11B39,2013-10-14 13:46:00,
2013-10-14 09:51:00,48.2,47.9,30.17,West,269,0.0,0.0,99,0.00,,,0.00,WeatherCatV1.11B39,2013-10-14 13:51:00,
2013-10-14 09:56:00,48.8,48.3,30.17,West,269,0.0,0.0,98,0.00,,,0.00,WeatherCatV1.11B39,2013-10-14 13:56:00,
2013-10-14 10:02:00,49.4,49.1,30.17,West,269,0.0,0.0,99,0.00,,,0.00,WeatherCatV1.11B39,2013-10-14 14:02:00,
2013-10-14 10:06:00,49.8,49.5,30.17,West,269,0.0,0.0,99,0.00,,,0.00,WeatherCatV1.11B39,2013-10-14 14:06:00,
2013-10-14 10:11:00,50.1,49.8,30.16,West,269,0.0,0.0,99,0.00,,,0.00,WeatherCatV1.11B39,2013-10-14 14:11:00,
2013-10-14 10:17:00,50.7,50.4,30.16,West,269,0.0,0.0,99,0.00,,,0.00,WeatherCatV1.11B39,2013-10-14 14:17:00,
2013-10-14 10:22:00,51.3,50.8,30.16,West,270,0.0,0.0,98,0.00,,,0.00,WeatherCatV1.11B39,2013-10-14 14:22:00,
2013-10-14 10:27:00,51.9,51.4,30.16,WSW,258,0.0,0.0,98,0.00,,,0.00,WeatherCatV1.11B39,2013-10-14 14:27:00,
2013-10-14 10:32:00,52.3,51.5,30.16,WSW,256,0.0,0.0,97,0.00,,,0.00,WeatherCatV1.11B39,2013-10-14 14:32:00,
2013-10-14 10:37:00,52.9,51.5,30.16,WSW,255,0.0,0.0,95,0.00,,,0.00,WeatherCatV1.11B39,2013-10-14 14:37:00,
2013-10-14 10:42:00,53.1,51.4,30.15,WSW,255,0.0,0.0,94,0.00,,,0.00,WeatherCatV1.11B39,2013-10-14 14:42:00,
2013-10-14 10:47:00,53.6,51.0,30.16,SW,231,0.0,0.0,91,0.00,,,0.00,WeatherCatV1.11B39,2013-10-14 14:47:00,
2013-10-14 10:52:00,53.9,50.4,30.15,SW,230,0.0,0.0,88,0.00,,,0.00,WeatherCatV1.11B39,2013-10-14 14:52:00,
2013-10-14 10:57:00,54.2,49.5,30.16,WSW,249,0.0,2.0,84,0.00,,,0.00,WeatherCatV1.11B39,2013-10-14 14:57:00,
2013-10-14 11:02:00,54.7,49.3,30.15,WSW,249,0.0,0.0,82,0.00,,,0.00,WeatherCatV1.11B39,2013-10-14 15:02:00,
2013-10-14 11:07:00,55.3,49.6,30.15,WSW,254,0.0,0.0,81,0.00,,,0.00,WeatherCatV1.11B39,2013-10-14 15:07:00,
2013-10-14 11:12:00,55.7,48.9,30.14,SW,215,0.0,0.0,78,0.00,,,0.00,WeatherCatV1.11B39,2013-10-14 15:12:00,
2013-10-14 11:17:00,56.2,48.0,30.15,NNW,339,0.0,0.0,74,0.00,,,0.00,WeatherCatV1.11B39,2013-10-14 15:17:00,
2013-10-14 11:22:00,56.3,47.0,30.15,West,259,0.0,0.0,71,0.00,,,0.00,WeatherCatV1.11B39,2013-10-14 15:22:00,
2013-10-14 11:27:00,56.6,46.2,30.14,WSW,248,0.0,0.0,68,0.00,,,0.00,WeatherCatV1.11B39,2013-10-14 15:27:00,
2013-10-14 11:32:00,57.0,46.2,30.14,WSW,248,0.0,0.0,67,0.00,,,0.00,WeatherCatV1.11B39,2013-10-14 15:32:00,
2013-10-14 11:37:00,57.3,45.6,30.14,WSW,253,0.0,0.0,65,0.00,,,0.00,WeatherCatV1.11B39,2013-10-14 15:37:00,
2013-10-14 11:42:00,58.1,47.2,30.14,WSW,253,0.0,0.0,67,0.00,,,0.00,WeatherCatV1.11B39,2013-10-14 15:42:00,
2013-10-14 11:47:00,58.7,47.4,30.13,WSW,255,0.0,0.0,66,0.00,,,0.00,WeatherCatV1.11B39,2013-10-14 15:47:00,
2013-10-14 11:52:00,58.8,44.9,30.13,West,265,0.0,0.0,60,0.00,,,0.00,WeatherCatV1.11B39,2013-10-14 15:52:00,
2013-10-14 11:57:00,59.6,45.7,30.13,West,265,0.0,0.0,60,0.00,,,0.00,WeatherCatV1.11B39,2013-10-14 15:57:00,
2013-10-14 12:02:00,59.9,44.2,30.13,West,259,0.0,0.0,56,0.00,,,0.00,WeatherCatV1.11B39,2013-10-14 16:02:00,
2013-10-14 12:07:00,59.5,42.4,30.13,WSW,247,0.0,0.0,53,0.00,,,0.00,WeatherCatV1.11B39,2013-10-14 16:07:00,
2013-10-14 12:12:00,59.1,42.5,30.12,WSW,247,0.0,0.0,54,0.00,,,0.00,WeatherCatV1.11B39,2013-10-14 16:12:00,
2013-10-14 12:17:00,59.8,43.6,30.12,South,180,0.0,0.0,55,0.00,,,0.00,WeatherCatV1.11B39,2013-10-14 16:17:00,
2013-10-14 12:22:00,60.4,44.6,30.12,WSW,247,0.0,0.0,56,0.00,,,0.00,WeatherCatV1.11B39,2013-10-14 16:22:00,
2013-10-14 12:27:00,60.7,43.0,30.12,WSW,248,0.0,0.0,52,0.00,,,0.00,WeatherCatV1.11B39,2013-10-14 16:27:00,
2013-10-14 12:32:00,61.0,42.2,30.12,SSW,198,0.0,0.0,50,0.00,,,0.00,WeatherCatV1.11B39,2013-10-14 16:32:00,
2013-10-14 12:37:00,61.2,43.9,30.12,SSW,201,0.0,0.0,53,0.00,,,0.00,WeatherCatV1.11B39,2013-10-14 16:37:00,
2013-10-14 12:42:00,62.0,44.2,30.11,SSW,199,0.0,0.0,52,0.00,,,0.00,WeatherCatV1.11B39,2013-10-14 16:42:00,
2013-10-14 12:47:00,61.9,43.6,30.10,WSW,243,0.0,0.0,51,0.00,,,0.00,WeatherCatV1.11B39,2013-10-14 16:47:00,
2013-10-14 12:52:00,62.4,44.5,30.10,WSW,244,0.0,0.0,52,0.00,,,0.00,WeatherCatV1.11B39,2013-10-14 16:52:00,
2013-10-14 12:57:00,62.3,42.9,30.10,WSW,247,0.0,2.0,49,0.00,,,0.00,WeatherCatV1.11B39,2013-10-14 16:57:00,
2013-10-14 13:02:00,62.3,42.9,30.10,NNW,338,0.0,0.0,49,0.00,,,0.00,WeatherCatV1.11B39,2013-10-14 17:02:00,
2013-10-14 13:07:00,62.1,42.2,30.09,WSW,249,0.0,0.0,48,0.00,,,0.00,WeatherCatV1.11B39,2013-10-14 17:07:00,
2013-10-14 13:12:00,62.0,42.6,30.09,WSW,242,0.0,0.0,49,0.00,,,0.00,WeatherCatV1.11B39,2013-10-14 17:12:00,
2013-10-14 13:17:00,61.9,42.5,30.09,WSW,242,0.0,0.0,49,0.00,,,0.00,WeatherCatV1.11B39,2013-10-14 17:17:00,
2013-10-14 13:22:00,62.4,44.5,30.09,WSW,242,0.0,0.0,52,0.00,,,0.00,WeatherCatV1.11B39,2013-10-14 17:22:00,
2013-10-14 13:27:00,62.6,43.2,30.09,WSW,242,0.0,0.0,49,0.00,,,0.00,WeatherCatV1.11B39,2013-10-14 17:27:00,
2013-10-14 13:32:00,62.4,44.5,30.09,WSW,242,0.0,0.0,52,0.00,,,0.00,WeatherCatV1.11B39,2013-10-14 17:32:00,
2013-10-14 13:37:00,63.2,45.8,30.08,WSW,242,0.0,0.0,53,0.00,,,0.00,WeatherCatV1.11B39,2013-10-14 17:37:00,
2013-10-14 13:42:00,64.5,46.5,30.08,WSW,242,0.0,0.0,52,0.00,,,0.00,WeatherCatV1.11B39,2013-10-14 17:42:00,
2013-10-14 13:47:00,65.3,46.7,30.08,WSW,242,0.0,0.0,51,0.00,,,0.00,WeatherCatV1.11B39,2013-10-14 17:47:00,
2013-10-14 13:52:00,65.6,44.8,30.08,WSW,255,0.0,0.0,47,0.00,,,0.00,WeatherCatV1.11B39,2013-10-14 17:52:00,
2013-10-14 13:57:00,65.4,44.1,30.07,WSW,255,0.0,0.0,46,0.00,,,0.00,WeatherCatV1.11B39,2013-10-14 17:57:00,
2013-10-14 14:02:00,65.8,45.6,30.08,WSW,255,0.0,0.0,48,0.00,,,0.00,WeatherCatV1.11B39,2013-10-14 18:02:00,
2013-10-14 14:07:00,65.9,44.0,30.07,WSW,255,0.0,0.0,45,0.00,,,0.00,WeatherCatV1.11B39,2013-10-14 18:07:00,
2013-10-14 14:12:00,65.8,43.3,30.07,SE,124,0.0,0.0,44,0.00,,,0.00,WeatherCatV1.11B39,2013-10-14 18:12:00,
2013-10-14 14:17:00,66.1,44.7,30.07,SE,143,0.0,0.0,46,0.00,,,0.00,WeatherCatV1.11B39,2013-10-14 18:17:00,
2013-10-14 14:22:00,66.6,44.6,30.08,SSE,148,0.0,0.0,45,0.00,,,0.00,WeatherCatV1.11B39,2013-10-14 18:22:00,
2013-10-14 14:27:00,66.8,43.6,30.07,SSE,152,0.0,1.0,43,0.00,,,0.00,WeatherCatV1.11B39,2013-10-14 18:27:00,
2013-10-14 14:32:00,66.8,45.3,30.07,South,188,0.0,0.0,46,0.00,,,0.00,WeatherCatV1.11B39,2013-10-14 18:32:00,
2013-10-14 14:37:00,66.9,44.3,30.07,SSW,195,0.0,0.0,44,0.00,,,0.00,WeatherCatV1.11B39,2013-10-14 18:37:00,
2013-10-14 14:42:00,66.7,44.1,30.07,WSW,240,0.0,0.0,44,0.00,,,0.00,WeatherCatV1.11B39,2013-10-14 18:42:00,
2013-10-14 14:47:00,65.9,43.4,30.07,West,260,0.0,0.0,44,0.00,,,0.00,WeatherCatV1.11B39,2013-10-14 18:47:00,
2013-10-14 14:52:00,65.6,42.5,30.07,West,259,0.0,0.0,43,0.00,,,0.00,WeatherCatV1.11B39,2013-10-14 18:52:00,
2013-10-14 14:57:00,65.5,43.0,30.07,WSW,258,0.0,0.0,44,0.00,,,0.00,WeatherCatV1.11B39,2013-10-14 18:57:00,
2013-10-14 15:02:00,65.8,43.9,30.07,WSW,258,0.0,0.0,45,0.00,,,0.00,WeatherCatV1.11B39,2013-10-14 19:02:00,
2013-10-14 15:07:00,65.9,44.5,30.06,WSW,239,0.0,0.0,46,0.00,,,0.00,WeatherCatV1.11B39,2013-10-14 19:07:00,
2013-10-14 15:12:00,66.9,44.3,30.06,SSE,160,0.0,0.0,44,0.00,,,0.00,WeatherCatV1.11B39,2013-10-14 19:12:00,
2013-10-14 15:17:00,66.9,43.7,30.06,East,82,0.0,0.0,43,0.00,,,0.00,WeatherCatV1.11B39,2013-10-14 19:17:00,
2013-10-14 15:22:00,67.0,44.4,30.06,South,178,0.0,0.0,44,0.00,,,0.00,WeatherCatV1.11B39,2013-10-14 19:22:00,
2013-10-14 15:27:00,67.6,43.7,30.06,SSW,194,0.0,0.0,42,0.00,,,0.00,WeatherCatV1.11B39,2013-10-14 19:27:00,
2013-10-14 15:32:00,67.8,44.5,30.06,SSW,209,0.0,0.0,43,0.00,,,0.00,WeatherCatV1.11B39,2013-10-14 19:32:00,
2013-10-14 15:37:00,68.0,44.0,30.06,SE,138,0.0,0.0,42,0.00,,,0.00,WeatherCatV1.11B39,2013-10-14 19:37:00,
2013-10-14 15:42:00,68.6,43.3,30.06,SSW,197,0.0,0.0,40,0.00,,,0.00,WeatherCatV1.11B39,2013-10-14 19:42:00,
2013-10-14 15:47:00,68.4,44.4,30.05,WSW,247,0.0,0.0,42,0.00,,,0.00,WeatherCatV1.11B39,2013-10-14 19:47:00,
2013-10-14 15:52:00,68.4,43.8,30.05,SE,145,0.0,0.0,41,0.00,,,0.00,WeatherCatV1.11B39,2013-10-14 19:52:00,
2013-10-14 15:57:00,68.7,42.7,30.05,SW,229,0.0,1.0,39,0.00,,,0.00,WeatherCatV1.11B39,2013-10-14 19:57:00,
2013-10-14 16:02:00,68.6,43.3,30.05,SW,222,0.0,0.0,40,0.00,,,0.00,WeatherCatV1.11B39,2013-10-14 20:02:00,
2013-10-14 16:07:00,68.4,43.1,30.05,SW,221,0.0,0.0,40,0.00,,,0.00,WeatherCatV1.11B39,2013-10-14 20:07:00,
2013-10-14 16:12:00,68.8,42.8,30.05,SW,223,0.0,0.0,39,0.00,,,0.00,WeatherCatV1.11B39,2013-10-14 20:12:00,
2013-10-14 16:17:00,69.1,44.4,30.05,SW,224,0.0,0.0,41,0.00,,,0.00,WeatherCatV1.11B39,2013-10-14 20:17:00,
2013-10-14 16:22:00,69.4,42.7,30.05,SSE,166,0.0,0.0,38,0.00,,,0.00,WeatherCatV1.11B39,2013-10-14 20:22:00,
2013-10-14 16:27:00,69.1,41.7,30.05,SE,140,0.0,0.0,37,0.00,,,0.00,WeatherCatV1.11B39,2013-10-14 20:27:00,
2013-10-14 16:32:00,68.9,41.5,30.05,SSE,147,0.0,0.0,37,0.00,,,0.00,WeatherCatV1.11B39,2013-10-14 20:32:00,
2013-10-14 16:37:00,68.9,40.8,30.05,SSE,168,0.0,0.0,36,0.00,,,0.00,WeatherCatV1.11B39,2013-10-14 20:37:00,
2013-10-14 16:42:00,68.6,41.3,30.05,South,186,0.0,0.0,37,0.00,,,0.00,WeatherCatV1.11B39,2013-10-14 20:42:00,
2013-10-14 16:47:00,68.4,41.1,30.05,South,172,0.0,0.0,37,0.00,,,0.00,WeatherCatV1.11B39,2013-10-14 20:47:00,
2013-10-14 16:52:00,68.1,41.5,30.05,South,186,0.0,0.0,38,0.00,,,0.00,WeatherCatV1.11B39,2013-10-14 20:52:00,
2013-10-14 16:57:00,67.6,41.8,30.05,SSW,194,0.0,0.0,39,0.00,,,0.00,WeatherCatV1.11B39,2013-10-14 20:57:00,
2013-10-14 17:02:00,67.3,41.5,30.05,South,180,0.0,0.0,39,0.00,,,0.00,WeatherCatV1.11B39,2013-10-14 21:02:00,
2013-10-14 17:07:00,67.3,41.5,30.05,South,179,0.0,0.0,39,0.00,,,0.00,WeatherCatV1.11B39,2013-10-14 21:07:00,
2013-10-14 17:12:00,66.9,41.8,30.05,SW,214,0.0,0.0,40,0.00,,,0.00,WeatherCatV1.11B39,2013-10-14 21:12:00,
2013-10-14 17:17:00,66.6,40.9,30.05,South,171,0.0,0.0,39,0.00,,,0.00,WeatherCatV1.11B39,2013-10-14 21:17:00,
2013-10-14 17:22:00,66.4,41.3,30.05,SSE,167,0.0,0.0,40,0.00,,,0.00,WeatherCatV1.11B39,2013-10-14 21:22:00,
2013-10-14 17:27:00,65.9,40.9,30.05,SSE,166,0.0,0.0,40,0.00,,,0.00,WeatherCatV1.11B39,2013-10-14 21:27:00,
2013-10-14 17:32:00,65.5,40.5,30.06,South,180,0.0,0.0,40,0.00,,,0.00,WeatherCatV1.11B39,2013-10-14 21:32:00,
2013-10-14 17:37:00,64.7,41.1,30.06,South,174,0.0,0.0,42,0.00,,,0.00,WeatherCatV1.11B39,2013-10-14 21:37:00,
2013-10-14 17:42:00,64.0,40.4,30.06,South,176,0.0,0.0,42,0.00,,,0.00,WeatherCatV1.11B39,2013-10-14 21:42:00,
2013-10-14 17:47:00,63.5,40.6,30.06,South,171,0.0,0.0,43,0.00,,,0.00,WeatherCatV1.11B39,2013-10-14 21:47:00,
2013-10-14 17:52:00,63.0,40.7,30.06,SSE,163,0.0,0.0,44,0.00,,,0.00,WeatherCatV1.11B39,2013-10-14 21:52:00,
2013-10-14 17:57:00,62.6,41.5,30.07,SSE,163,0.0,0.0,46,0.00,,,0.00,WeatherCatV1.11B39,2013-10-14 21:57:00,
2013-10-14 18:02:00,62.1,41.6,30.07,SSE,164,0.0,0.0,47,0.00,,,0.00,WeatherCatV1.11B39,2013-10-14 22:02:00,
2013-10-14 18:07:00,61.6,42.2,30.07,SSE,164,0.0,0.0,49,0.00,,,0.00,WeatherCatV1.11B39,2013-10-14 22:07:00,
2013-10-14 18:12:00,61.2,42.4,30.06,SSE,164,0.0,0.0,50,0.00,,,0.00,WeatherCatV1.11B39,2013-10-14 22:12:00,
2013-10-14 18:17:00,60.7,41.9,30.07,SSE,164,0.0,0.0,50,0.00,,,0.00,WeatherCatV1.11B39,2013-10-14 22:17:00,
2013-10-14 18:22:00,60.2,42.5,30.06,SSE,164,0.0,0.0,52,0.00,,,0.00,WeatherCatV1.11B39,2013-10-14 22:22:00,
2013-10-14 18:27:00,59.6,42.9,30.07,SSE,164,0.0,0.0,54,0.00,,,0.00,WeatherCatV1.11B39,2013-10-14 22:27:00,
2013-10-14 18:32:00,59.1,42.9,30.07,SSE,164,0.0,0.0,55,0.00,,,0.00,WeatherCatV1.11B39,2013-10-14 22:32:00,
2013-10-14 18:37:00,58.7,43.0,30.07,SSE,164,0.0,0.0,56,0.00,,,0.00,WeatherCatV1.11B39,2013-10-14 22:37:00,
2013-10-14 18:42:00,58.2,42.6,30.07,SSE,164,0.0,0.0,56,0.00,,,0.00,WeatherCatV1.11B39,2013-10-14 22:42:00,
2013-10-14 18:47:00,57.9,43.2,30.08,SSE,164,0.0,0.0,58,0.00,,,0.00,WeatherCatV1.11B39,2013-10-14 22:47:00,
2013-10-14 18:52:00,57.8,43.1,30.08,SSE,164,0.0,0.0,58,0.00,,,0.00,WeatherCatV1.11B39,2013-10-14 22:52:00,
2013-10-14 18:57:00,57.5,44.6,30.08,SSE,164,0.0,0.0,62,0.00,,,0.00,WeatherCatV1.11B39,2013-10-14 22:57:00,
2013-10-14 19:02:00,57.2,45.9,30.08,SSE,164,0.0,0.0,66,0.00,,,0.00,WeatherCatV1.11B39,2013-10-14 23:02:00,
2013-10-14 19:07:00,56.6,44.6,30.08,SSE,164,0.0,0.0,64,0.00,,,0.00,WeatherCatV1.11B39,2013-10-14 23:07:00,
2013-10-14 19:12:00,56.1,44.9,30.08,SSE,164,0.0,0.0,66,0.00,,,0.00,WeatherCatV1.11B39,2013-10-14 23:12:00,
2013-10-14 19:17:00,55.8,45.0,30.08,SSE,164,0.0,0.0,67,0.00,,,0.00,WeatherCatV1.11B39,2013-10-14 23:17:00,
2013-10-14 19:22:00,55.7,45.7,30.08,SSE,164,0.0,0.0,69,0.00,,,0.00,WeatherCatV1.11B39,2013-10-14 23:22:00,
2013-10-14 19:27:00,55.4,45.4,30.08,SSE,164,0.0,0.0,69,0.00,,,0.00,WeatherCatV1.11B39,2013-10-14 23:27:00,
2013-10-14 19:32:00,55.1,45.5,30.09,SSE,164,0.0,0.0,70,0.00,,,0.00,WeatherCatV1.11B39,2013-10-14 23:32:00,
2013-10-14 19:37:00,55.0,45.4,30.09,SSE,164,0.0,0.0,70,0.00,,,0.00,WeatherCatV1.11B39,2013-10-14 23:37:00,
2013-10-14 19:42:00,54.8,45.9,30.08,SSE,164,0.0,0.0,72,0.00,,,0.00,WeatherCatV1.11B39,2013-10-14 23:42:00,
2013-10-14 19:47:00,54.6,46.1,30.09,SSE,164,0.0,0.0,73,0.00,,,0.00,WeatherCatV1.11B39,2013-10-14 23:47:00,
2013-10-14 19:52:00,54.4,46.3,30.08,SSE,164,0.0,0.0,74,0.00,,,0.00,WeatherCatV1.11B39,2013-10-14 23:52:00,
2013-10-14 19:57:00,54.2,46.1,30.08,SSE,164,0.0,0.0,74,0.00,,,0.00,WeatherCatV1.11B39,2013-10-14 23:57:00,
2013-10-14 20:02:00,54.1,46.4,30.08,SSE,164,0.0,0.0,75,0.00,,,0.00,WeatherCatV1.11B39,2013-10-15 00:02:00,
2013-10-14 20:07:00,53.9,46.2,30.08,SSE,164,0.0,0.0,75,0.00,,,0.00,WeatherCatV1.11B39,2013-10-15 00:07:00,
2013-10-14 20:12:00,53.8,46.4,30.08,SSE,164,0.0,0.0,76,0.00,,,0.00,WeatherCatV1.11B39,2013-10-15 00:12:00,
2013-10-14 20:17:00,53.7,46.7,30.08,SSE,164,0.0,0.0,77,0.00,,,0.00,WeatherCatV1.11B39,2013-10-15 00:17:00,
2013-10-14 20:22:00,53.5,46.5,30.08,SSE,164,0.0,0.0,77,0.00,,,0.00,WeatherCatV1.11B39,2013-10-15 00:22:00,
2013-10-14 20:27:00,53.4,46.7,30.07,SSE,164,0.0,0.0,78,0.00,,,0.00,WeatherCatV1.11B39,2013-10-15 00:27:00,
2013-10-14 20:32:00,53.2,46.9,30.07,SSE,164,0.0,0.0,79,0.00,,,0.00,WeatherCatV1.11B39,2013-10-15 00:32:00,
2013-10-14 20:37:00,53.2,46.5,30.08,SSE,164,0.0,0.0,78,0.00,,,0.00,WeatherCatV1.11B39,2013-10-15 00:37:00,
2013-10-14 20:42:00,53.1,46.4,30.07,SSE,164,0.0,0.0,78,0.00,,,0.00,WeatherCatV1.11B39,2013-10-15 00:42:00,
2013-10-14 20:47:00,52.9,46.6,30.07,SSE,164,0.0,0.0,79,0.00,,,0.00,WeatherCatV1.11B39,2013-10-15 00:47:00,
2013-10-14 20:52:00,52.8,46.5,30.07,SSE,164,0.0,0.0,79,0.00,,,0.00,WeatherCatV1.11B39,2013-10-15 00:52:00,
2013-10-14 20:57:00,52.6,46.6,30.07,SSE,164,0.0,0.0,80,0.00,,,0.00,WeatherCatV1.11B39,2013-10-15 00:57:00,
2013-10-14 21:02:00,52.3,46.3,30.07,SSE,164,0.0,0.0,80,0.00,,,0.00,WeatherCatV1.11B39,2013-10-15 01:02:00,
2013-10-14 21:07:00,52.2,46.2,30.07,SSE,164,0.0,0.0,80,0.00,,,0.00,WeatherCatV1.11B39,2013-10-15 01:07:00,
2013-10-14 21:12:00,51.7,46.1,30.07,SSE,164,0.0,0.0,81,0.00,,,0.00,WeatherCatV1.11B39,2013-10-15 01:12:00,
2013-10-14 21:17:00,51.6,46.0,30.07,SSE,164,0.0,0.0,81,0.00,,,0.00,WeatherCatV1.11B39,2013-10-15 01:17:00,
2013-10-14 21:22:00,51.3,46.0,30.08,SSE,164,0.0,0.0,82,0.00,,,0.00,WeatherCatV1.11B39,2013-10-15 01:22:00,
2013-10-14 21:27:00,51.3,46.0,30.08,SSE,164,0.0,0.0,82,0.00,,,0.00,WeatherCatV1.11B39,2013-10-15 01:27:00,
2013-10-14 21:32:00,51.1,46.1,30.08,SSE,164,0.0,0.0,83,0.00,,,0.00,WeatherCatV1.11B39,2013-10-15 01:32:00,
2013-10-14 21:37:00,50.9,45.9,30.08,SSE,164,0.0,0.0,83,0.00,,,0.00,WeatherCatV1.11B39,2013-10-15 01:37:00,
2013-10-14 21:42:00,50.6,45.9,30.08,SSE,164,0.0,0.0,84,0.00,,,0.00,WeatherCatV1.11B39,2013-10-15 01:42:00,
2013-10-14 21:47:00,50.3,45.7,30.08,SSE,164,0.0,0.0,84,0.00,,,0.00,WeatherCatV1.11B39,2013-10-15 01:47:00,
2013-10-14 21:52:00,50.3,45.7,30.07,SSE,164,0.0,0.0,84,0.00,,,0.00,WeatherCatV1.11B39,2013-10-15 01:52:00,
2013-10-14 21:57:00,50.3,46.0,30.07,SSE,164,0.0,0.0,85,0.00,,,0.00,WeatherCatV1.11B39,2013-10-15 01:57:00,
2013-10-14 22:02:00,50.1,46.1,30.07,SSE,164,0.0,0.0,86,0.00,,,0.00,WeatherCatV1.11B39,2013-10-15 02:02:00,
2013-10-14 22:07:00,50.1,46.1,30.07,SSE,164,0.0,0.0,86,0.00,,,0.00,WeatherCatV1.11B39,2013-10-15 02:07:00,
2013-10-14 22:12:00,50.1,46.1,30.07,SSE,164,0.0,0.0,86,0.00,,,0.00,WeatherCatV1.11B39,2013-10-15 02:12:00,
2013-10-14 22:17:00,50.3,46.3,30.07,SSE,164,0.0,0.0,86,0.00,,,0.00,WeatherCatV1.11B39,2013-10-15 02:17:00,
2013-10-14 22:22:00,50.3,46.6,30.07,SSE,164,0.0,0.0,87,0.00,,,0.00,WeatherCatV1.11B39,2013-10-15 02:22:00,
2013-10-14 22:27:00,50.4,46.7,30.07,SSE,164,0.0,0.0,87,0.00,,,0.00,WeatherCatV1.11B39,2013-10-15 02:27:00,
2013-10-14 22:32:00,50.3,46.9,30.08,SSE,164,0.0,0.0,88,0.00,,,0.00,WeatherCatV1.11B39,2013-10-15 02:32:00,
2013-10-14 22:37:00,50.3,46.9,30.07,SSE,164,0.0,0.0,88,0.00,,,0.00,WeatherCatV1.11B39,2013-10-15 02:37:00,
2013-10-14 22:42:00,50.1,46.4,30.07,SSE,164,0.0,0.0,87,0.00,,,0.00,WeatherCatV1.11B39,2013-10-15 02:42:00,
2013-10-14 22:47:00,50.0,46.3,30.07,SSE,164,0.0,0.0,87,0.00,,,0.00,WeatherCatV1.11B39,2013-10-15 02:47:00,
2013-10-14 22:52:00,50.1,46.7,30.07,SSE,164,0.0,0.0,88,0.00,,,0.00,WeatherCatV1.11B39,2013-10-15 02:52:00,
2013-10-14 22:57:00,50.3,46.9,30.07,SSE,164,0.0,0.0,88,0.00,,,0.00,WeatherCatV1.11B39,2013-10-15 02:57:00,
2013-10-14 23:02:00,50.4,47.0,30.07,SSE,164,0.0,0.0,88,0.00,,,0.00,WeatherCatV1.11B39,2013-10-15 03:02:00,
2013-10-14 23:07:00,50.6,47.2,30.07,SSE,164,0.0,0.0,88,0.00,,,0.00,WeatherCatV1.11B39,2013-10-15 03:07:00,
2013-10-14 23:12:00,50.4,47.0,30.07,SSE,164,0.0,0.0,88,0.00,,,0.00,WeatherCatV1.11B39,2013-10-15 03:12:00,
2013-10-14 23:17:00,50.3,46.9,30.06,SSE,164,0.0,0.0,88,0.00,,,0.00,WeatherCatV1.11B39,2013-10-15 03:17:00,
2013-10-14 23:22:00,50.4,47.0,30.07,SSE,164,0.0,0.0,88,0.00,,,0.00,WeatherCatV1.11B39,2013-10-15 03:22:00,
2013-10-14 23:27:00,50.4,46.7,30.07,SSE,164,0.0,0.0,87,0.00,,,0.00,WeatherCatV1.11B39,2013-10-15 03:27:00,
2013-10-14 23:32:00,50.6,47.2,30.06,SSE,164,0.0,0.0,88,0.00,,,0.00,WeatherCatV1.11B39,2013-10-15 03:32:00,
2013-10-14 23:37:00,50.7,47.3,30.07,SSE,164,0.0,0.0,88,0.00,,,0.00,WeatherCatV1.11B39,2013-10-15 03:37:00,
2013-10-14 23:42:00,50.9,47.8,30.07,SSE,164,0.0,0.0,89,0.00,,,0.00,WeatherCatV1.11B39,2013-10-15 03:42:00,
2013-10-14 23:47:00,51.0,47.9,30.07,SSE,164,0.0,0.0,89,0.00,,,0.00,WeatherCatV1.11B39,2013-10-15 03:47:00,
2013-10-14 23:52:00,51.2,48.1,30.07,SSE,164,0.0,0.0,89,0.00,,,0.00,WeatherCatV1.11B39,2013-10-15 03:52:00,
2013-10-14 23:57:00,51.2,48.1,30.06,SSE,164,0.0,0.0,89,0.00,,,0.00,WeatherCatV1.11B39,2013-10-15 03:57:00,